Regional Weather Roundup
Issued by NWS New Orleans/Baton Rouge, LA

Home | Current Version | Previous Version | Text Only | Print | Product List | Glossary On
Versions: 1 2 3 4 5 6 7 8 9 10 11 12 13 14 15 16 17 18 19 20 21 22 23 24 25 26 27 28 29 30 31 32 33 34 35 36 37 38 39 40 41 42 43 44 45 46 47 48 49 50
699
ASUS44 KLIX 211605
RWRLIX
NEW ORLEANS REGIONAL WEATHER ROUNDUP
NATIONAL WEATHER SERVICE NEW ORLEANS LA
1000 AM CST FRI NOV 21 2014

NOTE: "FAIR" INDICATES FEW OR NO CLOUDS BELOW 12,000 FEET WITH NO
      SIGNIFICANT WEATHER AND/OR OBSTRUCTIONS TO VISIBILITY.
      SKY/WX - SKY CONDITION AND SIGNIFICANT WEATHER.
      TMP - AIR TEMPERATURE.     DP    - DEWPOINT TEMPERATURE.
      RH  - RELATIVE HUMIDITY.   PRES  - PRESSURE.
      HI  - HEAT INDEX.          WCI   - WIND CHILL INDEX.

*  THESE STATIONS ARE NOT NWS OR FAA STATIONS AND ARE NOT UNDER
   NWS QUALITY CONTROL.

LAZ038-040-048-061>063-065>067-069-211700-
SOUTHEAST LOUISIANA

CITY           SKY/WX    TMP DP  RH WIND       PRES   REMARKS
N.O. AUDUBON     N/A     67  47  48 MISG        N/A
N.O. INTL ARPT MOSUNNY   67  46  47 SE10      30.32R
N.O. LAKEFRONT SUNNY     65  47  52 SE10      30.32S
N.O. DOWNTOWN*   N/A     66  45  45 SE8       30.32S
SLIDELL        SUNNY     65  48  54 E6        30.32R
BATON ROUGE    MOSUNNY   65  47  52 E9        30.30R
BOOTHVILLE     SUNNY     66  51  58 E10       30.31S
BELLE CHASSE   MOSUNNY   67  45  45 E12       30.31R
BOGALUSA*        N/A     62  47  57 SE3       30.34F
NEW ROADS*     PTSUNNY   66  48  52 E12       30.29F
GONZALES*        N/A     66  48  51 SE7G16    30.29F
HAMMOND*       SUNNY     66  48  52 SE3       30.33S
HOUMA*         SUNNY     63  52  67 E14       30.30S
PORT FOURCHON* SUNNY     68  52  56 E12G20    30.33R

$$

MSZ070-080>082-211700-
SOUTHERN MISSISSIPPI

CITY           SKY/WX    TMP DP  RH WIND       PRES   REMARKS
MCCOMB         PTSUNNY   63  46  54 SE8       30.32S
GULFPORT       SUNNY     65  49  56 E12       30.33S
BILOXI         NOT AVBL
PASCAGOULA     SUNNY     66  50  56 E10       30.34S
STENNIS ARPT*  SUNNY     64  46  52 SE9       30.32F

$$

COASTAL OBSERVATIONS
LAKE AND NEARSHORE STATIONS

STATION/POSITION TIME  TEMP    WIND        PRES    WAVE
                       AIR SEA DIR/SP/G            HT/PER
                 (UTC) (F)     (DEG/KT/KT) (MB)    (FT/S)
PASCAGOULA       1600   63      70/ 12/ 15 1026.7
WAVELAND YACHT   1600   59      CALM  /  3 1026.0
GRAND ISLE       1600   65 58  100/  7/ 13 1026.5
SOUTHWEST PASS   1600   66 72              1026.1
NEW CANAL        1600   65 52  280/  1/  4 1026.8
SHELL BEACH      1600   59 49   60/  8/  8 1026.4

OFFSHORE STATIONS

STATION/POSITION TIME  TEMP    WIND        PRES    WAVE
                       AIR SEA DIR/SP/G            HT/PER
                 (UTC) (F)     (DEG/KT/KT) (MB)    (FT/S)
64 S DAUPHIN ISL 1458   66 73   80/ 16/ 19 1027.3    3/ 6

$$




USA.gov is the U.S. government's official web portal to all federal, state and local government web resources and services.